DW7857 Weather Reports


Display with metric or nautical units.
time (UTC)temp
F
wind
direction
speed
MPH
gust
MPH
rain 1hr
in
rain 24hr
in
rain mn
in
humidity
%
barometer
mb
20260903054503 65 140 3.0 4.0 0.00 0.05 0.00 92 1013.4
20260903053603 65 142 3.0 4.0 0.00 0.05 0.00 91 1013.2
20260903052703 65 190 2.0 6.0 0.00 0.05 0.00 91 1013.1
20260903051803 65 154 2.0 5.0 0.00 0.05 0.00 90 1013.0
20260903050903 65 249 2.0 4.0 0.00 0.05 0.00 90 1013.1
20260903050003 65 153 3.0 5.0 0.00 0.05 0.00 90 1012.7
20260903045403 65 143 3.0 6.0 0.00 0.05 0.00 91 1012.9
20260903044503 65 243 4.0 7.0 0.00 0.05 0.00 92 1012.8
20260903043603 65 258 3.0 7.0 0.00 0.05 0.00 93 1012.6
20260903042703 65 183 4.0 6.0 0.00 0.05 0.00 94 1012.6
20260903041803 65 173 3.0 5.0 0.00 0.05 0.00 95 1012.6
20260903040903 64 156 3.0 4.0 0.00 0.05 0.00 96 1012.5
20260903040003 64 190 2.0 4.0 0.00 0.05 0.00 96 1012.6
20260903035403 64 171 2.0 4.0 0.00 0.05 0.00 96 1013.1
20260903034717 64 149 2.0 4.0 0.00 0.05 0.00 96 1012.8
20260903033603 64 173 3.0 4.0 0.00 0.05 0.00 95 1012.6
20260903032703 64 176 4.0 6.0 0.00 0.05 0.00 95 1012.9
20260903031803 64 172 4.0 5.0 0.00 0.05 0.00 95 1012.7
20260903030903 64 143 3.0 4.0 0.00 0.05 0.00 95 1012.8
20260903030003 64 163 3.0 4.0 0.00 0.05 0.00 95 1012.8
20260903025403 64 172 3.0 4.0 0.00 0.05 0.00 95 1012.6
20260903024503 64 175 3.0 4.0 0.00 0.05 0.00 95 1012.7
20260903023603 64 169 2.0 4.0 0.00 0.05 0.00 95 1012.9
20260903022703 64 167 3.0 4.0 0.00 0.05 0.00 95 1012.8
20260903021803 64 195 5.0 8.0 0.00 0.05 0.00 95 1012.6
20260903021116 64 160 5.0 7.0 0.00 0.05 0.00 95 1012.9
20260903020218 64 171 4.0 5.0 0.00 0.05 0.00 95 1012.8
20260903015403 64 104 3.0 4.0 0.00 0.05 0.00 95 1012.7
20260903014503 64 182 4.0 7.0 0.00 0.05 0.00 95 1012.5
20260903013603 64 173 3.0 4.0 0.00 0.05 0.00 95 1012.9
20260903012703 64 150 4.0 6.0 0.00 0.05 0.00 95 1012.7
20260903012017 64 147 4.0 6.0 0.00 0.05 0.00 95 1012.9
20260903010903 64 156 2.0 3.0 0.00 0.05 0.00 95 1012.7
20260903010003 64 154 2.0 4.0 0.00 0.05 0.00 95 1012.8
20260903005403 64 148 3.0 6.0 0.00 0.05 0.00 95 1012.7
20260903004503 64 148 3.0 4.0 0.00 0.05 0.00 94 1012.9
20260903003818 64 157 4.0 5.0 0.00 0.05 0.00 94 1013.1
20260903002917 64 159 3.0 4.0 0.00 0.05 0.00 94 1013.0
20260903001803 64 180 3.0 4.0 0.00 0.05 0.00 94 1013.1
20260903000903 64 146 3.0 4.0 0.00 0.05 0.00 93 1012.8
20260903000003 64 162 2.0 5.0 0.00 0.05 0.00 93 1013.0
20260902235403 64 146 3.0 5.0 0.00 0.05 0.00 93 1013.1
20260902234503 64 151 2.0 3.0 0.00 0.05 0.00 93 1013.3
20260902233603 64 165 2.0 2.0 0.00 0.05 0.00 93 1013.2
20260902232703 64 170 2.0 4.0 0.00 0.05 0.00 93 1013.3
20260902232018 64 146 2.0 4.0 0.00 0.05 0.00 93 1013.1
20260902230903 64 170 3.0 4.0 0.00 0.05 0.00 93 1013.3
20260902230003 64 167 3.0 4.0 0.00 0.05 0.00 94 1012.9
20260902225403 64 162 2.0 4.0 0.00 0.05 0.05 94 1012.9
20260902224503 64 163 3.0 4.0 0.00 0.05 0.05 95 1013.1
20260902223603 64 164 3.0 4.0 0.00 0.05 0.05 95 1013.3
20260902222703 64 178 3.0 7.0 0.00 0.05 0.05 95 1013.3
20260902221803 64 165 3.0 5.0 0.00 0.05 0.05 96 1013.1
20260902220903 64 161 2.0 4.0 0.00 0.05 0.05 96 1013.7
20260902220003 64 172 1.0 3.0 0.00 0.05 0.05 96 1013.5
20260902215403 64 156 1.0 4.0 0.00 0.05 0.05 96 1013.3
20260902214717 64 154 2.0 4.0 0.00 0.05 0.05 96 1013.2
20260902213816 64 135 2.0 3.0 0.00 0.05 0.05 96 1013.5
20260902212703 64 109 3.0 4.0 0.00 0.05 0.05 96 1013.2
20260902211803 64 133 2.0 4.0 0.00 0.05 0.05 96 1013.0
20260902210903 64 177 3.0 4.0 0.00 0.05 0.05 96 1013.1
20260902210003 64 167 4.0 5.0 0.00 0.05 0.05 95 1013.0
20260902205403 64 165 4.0 5.0 0.00 0.05 0.05 95 1013.1
20260902204503 64 160 3.0 4.0 0.00 0.05 0.05 95 1012.8
20260902203603 64 175 3.0 4.0 0.00 0.05 0.05 94 1013.3
20260902202703 64 145 3.0 5.0 0.00 0.05 0.05 94 1013.0
20260902201803 64 155 3.0 4.0 0.00 0.05 0.05 94 1013.1
20260902201118 64 157 3.0 5.0 0.00 0.05 0.05 94 1013.0
20260902200003 64 170 3.0 6.0 0.00 0.05 0.05 93 1013.0
20260902195403 64 188 4.0 5.0 0.00 0.05 0.05 93 1012.9
20260902194503 64 207 3.0 4.0 0.00 0.05 0.05 93 1012.8
20260902193818 64 233 4.0 5.0 0.00 0.05 0.05 92 1012.8
20260902192703 65 179 5.0 8.0 0.00 0.05 0.05 92 1012.6
20260902192016 65 190 5.0 7.0 0.00 0.05 0.05 91 1012.5
20260902191118 65 159 6.0 8.0 0.00 0.05 0.05 90 1012.5
20260902190003 65 183 6.0 8.0 0.00 0.05 0.05 90 1012.4
20260902185403 66 176 5.0 8.0 0.00 0.05 0.05 90 1012.3
20260902184503 66 165 5.0 8.0 0.00 0.05 0.05 89 1012.5
20260902183603 66 172 6.0 9.0 0.00 0.05 0.05 89 1012.4
20260902182703 67 180 5.0 7.0 0.00 0.05 0.05 88 1012.3
20260902182016 67 192 6.0 8.0 0.00 0.05 0.05 88 1012.3
20260902180903 67 144 5.0 7.0 0.00 0.05 0.05 89 1012.3
20260902180006 67 183 3.0 7.0 0.00 0.05 0.05 91 1012.2
20260902175403 67 143 2.0 4.0 0.00 0.05 0.05 91 1012.3
20260902174503 67 151 3.0 4.0 0.00 0.05 0.05 91 1012.1
20260902173603 67 214 4.0 6.0 0.00 0.05 0.05 91 1012.2
20260902172703 67 180 5.0 8.0 0.00 0.05 0.05 91 1012.2
20260902171803 67 174 5.0 10.0 0.00 0.05 0.05 92 1012.2
20260902170903 67 183 6.0 10.0 0.00 0.05 0.05 92 1012.0
20260902170003 67 184 6.0 9.0 0.00 0.05 0.05 92 1012.1
20260902165403 67 195 6.0 9.0 0.00 0.05 0.05 93 1012.3
20260902164717 67 197 6.0 9.0 0.00 0.05 0.05 93 1012.2
20260902163603 67 203 6.0 8.0 0.00 0.05 0.05 93 1012.0
20260902162918 67 186 7.0 11.0 0.00 0.05 0.05 93 1012.1
20260902161803 67 180 8.0 11.0 0.00 0.05 0.05 93 1012.1
20260902160903 67 155 9.0 13.0 0.00 0.05 0.05 95 1011.8
20260902160218 67 168 9.0 11.0 0.00 0.05 0.05 96 1012.1
20260902155618 67 192 9.0 11.0 0.00 0.05 0.05 97 1011.7
20260902154717 66 201 9.0 11.0 0.00 0.05 0.05 100 1011.8
20260902153603 66 178 7.0 9.0 0.00 0.05 0.05 100 1012.0
20260902152703 66 137 8.0 11.0 0.00 0.05 0.05 100 1012.4
20260902151803 65 195 8.0 11.0 0.00 0.05 0.05 100 1012.4
20260902150903 65 208 8.0 11.0 0.00 0.05 0.05 100 1012.4
20260902150003 65 205 9.0 14.0 0.00 0.05 0.05 100 1012.1
20260902145617 65 199 9.0 14.0 0.00 0.05 0.05 100 1012.2
20260902144503 64 192 7.0 10.0 0.00 0.05 0.05 100 1012.4
20260902143603 64 185 8.0 11.0 0.00 0.05 0.05 100 1012.3
20260902142705 64 200 9.0 11.0 0.00 0.05 0.05 100 1012.3
20260902141803 64 215 8.0 11.0 0.00 0.05 0.05 100 1012.5
20260902141118 65 213 8.0 14.0 0.00 0.05 0.05 100 1012.5
20260902140003 65 197 8.0 12.0 0.00 0.05 0.05 100 1012.2
20260902135403 65 208 9.0 12.0 0.00 0.05 0.05 100 1012.6
20260902134503 65 154 8.0 15.0 0.00 0.05 0.05 100 1012.3
20260902133817 65 177 7.0 15.0 0.00 0.05 0.05 100 1012.7
20260902132703 64 168 8.0 10.0 0.00 0.05 0.05 97 1012.9
20260902131803 64 214 7.0 11.0 0.00 0.05 0.05 97 1012.6
20260902130903 64 170 9.0 13.0 0.00 0.05 0.05 96 1012.8
20260902130003 64 189 9.0 12.0 0.00 0.05 0.05 96 1012.8
20260902125403 64 200 8.0 11.0 0.01 0.05 0.05 96 1012.8
20260902124503 64 188 13.0 20.0 0.01 0.05 0.05 96 1012.8
20260902123603 64 199 9.0 14.0 0.02 0.05 0.05 96 1012.8
20260902122703 64 200 12.0 16.0 0.02 0.05 0.05 95 1013.0
20260902122018 64 208 10.0 16.0 0.02 0.05 0.05 95 1012.8
20260902120903 64 198 9.0 13.0 0.02 0.05 0.05 95 1012.7
20260902120216 63 193 8.0 13.0 0.02 0.05 0.05 97 1012.9
20260902115403 63 204 9.0 12.0 0.01 0.04 0.04 96 1013.3
20260902114503 63 204 9.0 14.0 0.01 0.04 0.04 95 1013.3
20260902113603 63 181 10.0 14.0 0.00 0.02 0.02 94 1013.4
20260902112703 63 179 9.0 15.0 0.00 0.02 0.02 94 1013.4
20260902111803 63 167 9.0 14.0 0.00 0.02 0.02 93 1013.5
20260902110903 63 189 10.0 14.0 0.00 0.02 0.02 92 1013.6
20260902110004 63 202 11.0 15.0 0.00 1.00 0.02 90 1013.7
20260902105618 63 171 11.0 14.0 0.00 1.98 0.02 89 1013.6
20260902104503 64 182 11.0 15.0 0.00 1.98 0.02 82 1013.8
20260902103603 65 213 13.0 21.0 0.00 1.98 0.02 81 1013.7
20260902102703 65 214 12.0 15.0 0.00 1.98 0.02 81 1013.4
20260902101803 65 196 11.0 17.0 0.00 1.98 0.02 82 1013.5
20260902101116 65 183 12.0 17.0 0.00 1.98 0.02 83 1013.7
20260902100003 65 190 10.0 15.0 0.00 1.98 0.02 84 1013.5
20260902095403 65 201 10.0 14.0 0.00 1.98 0.02 85 1013.4
20260902094503 64 179 11.0 17.0 0.00 1.98 0.02 84 1014.0
20260902093603 64 178 10.0 17.0 0.00 1.98 0.02 84 1014.1
20260902092703 64 208 9.0 12.0 0.00 1.98 0.02 84 1013.7
20260902091803 63 199 8.0 11.0 0.00 1.98 0.02 89 1013.7
20260902090903 63 172 8.0 12.0 0.00 1.98 0.02 91 1014.0
20260902090003 63 209 8.0 12.0 0.01 1.98 0.02 92 1014.1
20260902085403 63 130 7.0 11.0 0.01 1.98 0.02 93 1013.9
20260902084503 63 162 8.0 10.0 0.01 1.98 0.02 93 1013.9
20260902083603 62 230 6.0 12.0 0.01 1.98 0.02 93 1013.9
20260902082917 62 171 8.0 12.0 0.02 1.98 0.02 92 1014.0
20260902081803 62 220 8.0 11.0 0.02 1.98 0.02 92 1014.0
20260902080903 62 194 7.0 11.0 0.02 1.98 0.02 93 1014.0
20260902080217 61 218 8.0 11.0 0.01 1.97 0.01 94 1013.6
20260902075403 62 182 6.0 8.0 0.01 1.97 0.01 95 1014.0
20260902074503 62 193 8.0 11.0 0.01 1.97 0.01 95 1013.8
20260902073603 62 209 6.0 11.0 0.01 1.97 0.01 95 1014.1
20260902072703 62 168 5.0 8.0 0.00 1.96 0.00 96 1013.8
20260902071803 62 180 5.0 8.0 0.00 1.96 0.00 97 1013.7
20260902070903 62 180 4.0 6.0 0.00 1.96 0.00 100 1013.9
20260902070004 62 190 4.0 6.0 0.00 1.96 0.00 100 1013.7
20260902065403 62 172 5.0 6.0 0.00 1.96 0.00 100 1014.1
20260902064503 62 184 5.0 7.0 0.00 1.96 0.00 97 1013.9
20260902063603 61 170 4.0 8.0 0.00 1.96 0.00 97 1013.8
20260902062918 61 172 4.0 6.0 0.00 1.96 0.00 96 1013.9
20260902061803 61 144 3.0 7.0 0.00 1.96 0.00 96 1013.5
20260902060903 61 114 2.0 4.0 0.00 1.96 0.00 95 1013.6
20260902060003 61 185 2.0 4.0 0.00 1.96 0.00 95 1014.0
20260902055403 61 171 3.0 5.0 0.00 1.96 0.00 95 1014.0